• în România
  • Lista ţărilor
  • Pe 7 zile
  • Temperatura apei
  • Hartă satelitară
  • Meteo pe hartă
  • Widget-uri
  • user-avatar
    Intrare

    Meteo pe oră la Budziejowice

    Astăzi, 21 Octombrie, Duminică

    Timp Temperatura Precipitaţii Vânt Presiune Umiditate
    00:00 +7°C° 0.1 mm 4 m/s 748 mmHg 80%
    01:00 +7°C° 0.1 mm 3 m/s 748 mmHg 83%
    02:00 +7°C° 0.1 mm 3 m/s 748 mmHg 86%
    03:00 +7°C° 0.1 mm 3 m/s 748 mmHg 88%
    04:00 +7°C° 0.1 mm 3 m/s 748 mmHg 90%
    05:00 +7°C° 0.1 mm 3 m/s 748 mmHg 90%
    06:00 +7°C° 0.1 mm 3 m/s 748 mmHg 89%
    07:00 +7°C° 0.1 mm 4 m/s 749 mmHg 88%
    08:00 +7°C° 0.2 mm 4 m/s 749 mmHg 85%
    09:00 +7°C° 0.2 mm 4 m/s 749 mmHg 83%
    10:00 +8°C° 0.2 mm 4 m/s 750 mmHg 80%
    11:00 +10°C° 0 mm 3 m/s 750 mmHg 75%
    12:00 +11°C° 0 mm 3 m/s 750 mmHg 69%
    13:00 +12°C° 0 mm 3 m/s 750 mmHg 63%
    14:00 +12°C° 0 mm 3 m/s 750 mmHg 64%
    15:00 +12°C° 0 mm 2 m/s 750 mmHg 65%
    16:00 +12°C° 0 mm 2 m/s 750 mmHg 66%
    17:00 +10°C° 0 mm 2 m/s 750 mmHg 71%
    18:00 +9°C° 0 mm 2 m/s 750 mmHg 75%
    19:00 +8°C° 0 mm 2 m/s 750 mmHg 79%
    20:00 +8°C° 0 mm 1 m/s 751 mmHg 81%
    21:00 +8°C° 0 mm 1 m/s 751 mmHg 83%
    22:00 +7°C° 0 mm 1 m/s 751 mmHg 85%
    23:00 +7°C° 0 mm 1 m/s 751 mmHg 85%

    Mâine, 22 Octombrie, Luni

    Timp Temperatura Precipitaţii Vânt Presiune Umiditate
    00:00 +6°C° 0 mm 0 m/s 751 mmHg 86%
    01:00 +5°C° 0 mm 0 m/s 750 mmHg 87%
    02:00 +5°C° 0 mm 0 m/s 750 mmHg 87%
    03:00 +5°C° 0 mm 0 m/s 750 mmHg 87%
    04:00 +5°C° 0 mm 0 m/s 750 mmHg 88%
    05:00 +5°C° 0 mm 0 m/s 750 mmHg 87%
    06:00 +5°C° 0 mm 0 m/s 750 mmHg 86%
    07:00 +5°C° 0 mm 0 m/s 750 mmHg 86%
    08:00 +7°C° 0 mm 0 m/s 750 mmHg 77%
    09:00 +9°C° 0 mm 0 m/s 750 mmHg 68%
    10:00 +11°C° 0 mm 0 m/s 750 mmHg 60%
    11:00 +13°C° 0 mm 1 m/s 749 mmHg 56%
    12:00 +14°C° 0 mm 1 m/s 749 mmHg 53%
    13:00 +14°C° 0 mm 1 m/s 748 mmHg 50%
    14:00 +14°C° 0 mm 1 m/s 748 mmHg 52%
    15:00 +13°C° 0 mm 1 m/s 748 mmHg 55%
    16:00 +13°C° 0 mm 1 m/s 747 mmHg 58%
    17:00 +11°C° 0 mm 1 m/s 747 mmHg 62%
    18:00 +10°C° 0 mm 1 m/s 748 mmHg 66%
    19:00 +8°C° 0 mm 2 m/s 748 mmHg 71%
    20:00 +8°C° 0 mm 2 m/s 748 mmHg 72%
    21:00 +8°C° 0 mm 2 m/s 748 mmHg 73%
    22:00 +8°C° 0 mm 3 m/s 748 mmHg 75%
    23:00 +8°C° 0.4 mm 3 m/s 748 mmHg 78%

    Poimâine, 23 Octombrie, Marţi

    Timp Temperatura Precipitaţii Vânt Presiune Umiditate
    00:00 +7°C° 0.4 mm 4 m/s 748 mmHg 81%
    01:00 +7°C° 0.4 mm 4 m/s 748 mmHg 83%
    02:00 +7°C° 0.1 mm 4 m/s 748 mmHg 84%
    03:00 +6°C° 0.1 mm 4 m/s 748 mmHg 84%
    04:00 +5°C° 0.1 mm 4 m/s 747 mmHg 84%
    05:00 +5°C° 0 mm 4 m/s 747 mmHg 86%
    06:00 +4°C° 0 mm 3 m/s 747 mmHg 88%
    07:00 +4°C° 0 mm 3 m/s 748 mmHg 90%
    08:00 +5°C° 0 mm 4 m/s 747 mmHg 82%
    09:00 +6°C° 0 mm 4 m/s 747 mmHg 75%
    10:00 +7°C° 0 mm 5 m/s 746 mmHg 67%
    11:00 +8°C° 0 mm 5 m/s 745 mmHg 64%
    12:00 +8°C° 0 mm 6 m/s 744 mmHg 60%
    13:00 +9°C° 0 mm 6 m/s 743 mmHg 57%
    14:00 +8°C° 0.2 mm 6 m/s 742 mmHg 59%
    15:00 +8°C° 0.2 mm 7 m/s 741 mmHg 61%
    16:00 +8°C° 0.2 mm 7 m/s 740 mmHg 63%
    17:00 +6°C° 0.4 mm 8 m/s 739 mmHg 66%
    18:00 +6°C° 0.4 mm 8 m/s 738 mmHg 68%
    19:00 +6°C° 0.4 mm 9 m/s 737 mmHg 71%
    20:00 +6°C° 0.5 mm 10 m/s 735 mmHg 73%
    21:00 +7°C° 0.5 mm 10 m/s 734 mmHg 75%
    22:00 +7°C° 0.5 mm 11 m/s 733 mmHg 76%
    23:00 +8°C° 1.4 mm 10 m/s 732 mmHg 77%

    24 Octombrie, Miercuri

    Timp Temperatura Precipitaţii Vânt Presiune Umiditate
    00:00 +8°C° 1.4 mm 10 m/s 732 mmHg 78%
    01:00 +8°C° 1.4 mm 10 m/s 731 mmHg 78%
    02:00 +7°C° 0.4 mm 10 m/s 731 mmHg 76%
    03:00 +7°C° 0.4 mm 10 m/s 731 mmHg 73%
    04:00 +6°C° 0.4 mm 10 m/s 731 mmHg 70%
    05:00 +5°C° 0.3 mm 10 m/s 732 mmHg 68%
    06:00 +5°C° 0.3 mm 10 m/s 732 mmHg 66%
    07:00 +3°C° 0.3 mm 10 m/s 733 mmHg 64%
    08:00 +3°C° 0.1 mm 10 m/s 733 mmHg 59%
    09:00 +5°C° 0.1 mm 10 m/s 734 mmHg 53%
    10:00 +5°C° 0.1 mm 10 m/s 734 mmHg 48%
    11:00 +5°C° 0 mm 10 m/s 735 mmHg 46%
    12:00 +5°C° 0 mm 10 m/s 735 mmHg 44%
    13:00 +6°C° 0 mm 10 m/s 735 mmHg 42%
    14:00 +5°C° 0 mm 9 m/s 735 mmHg 43%
    15:00 +5°C° 0 mm 9 m/s 736 mmHg 45%
    16:00 +5°C° 0 mm 8 m/s 736 mmHg 46%
    17:00 +4°C° 0 mm 7 m/s 736 mmHg 49%
    18:00 +4°C° 0 mm 7 m/s 737 mmHg 51%
    19:00 +3°C° 0 mm 6 m/s 737 mmHg 54%
    20:00 +3°C° 0 mm 6 m/s 737 mmHg 55%
    21:00 +2°C° 0 mm 6 m/s 738 mmHg 57%
    22:00 +2°C° 0 mm 6 m/s 738 mmHg 59%
    23:00 +2°C° 0 mm 6 m/s 738 mmHg 62%

    25 Octombrie, Joi

    Timp Temperatura Precipitaţii Vânt Presiune Umiditate
    00:00 +2°C° 0 mm 6 m/s 738 mmHg 65%
    01:00 +2°C° 0 mm 6 m/s 738 mmHg 68%
    02:00 +1°C° 0 mm 6 m/s 739 mmHg 70%
    03:00 +1°C° 0 mm 6 m/s 739 mmHg 72%
    04:00 +1°C° 0 mm 6 m/s 739 mmHg 75%
    05:00 +1°C° 0 mm 6 m/s 739 mmHg 75%
    06:00 +2°C° 0 mm 5 m/s 739 mmHg 76%
    07:00 +2°C° 0 mm 5 m/s 739 mmHg 76%
    08:00 +3°C° 0.3 mm 5 m/s 738 mmHg 77%
    09:00 +5°C° 0.3 mm 5 m/s 738 mmHg 78%
    10:00 +5°C° 0.3 mm 5 m/s 738 mmHg 79%
    11:00 +5°C° 0.6 mm 6 m/s 737 mmHg 82%
    12:00 +7°C° 0.6 mm 6 m/s 737 mmHg 85%
    13:00 +8°C° 0.6 mm 7 m/s 736 mmHg 87%
    14:00 +8°C° 0.4 mm 7 m/s 736 mmHg 86%
    15:00 +9°C° 0.4 mm 7 m/s 736 mmHg 85%
    16:00 +9°C° 0.4 mm 8 m/s 736 mmHg 83%
    17:00 +9°C° 0.1 mm 7 m/s 736 mmHg 84%
    18:00 +9°C° 0.1 mm 7 m/s 737 mmHg 84%
    19:00 +8°C° 0.1 mm 7 m/s 737 mmHg 84%
    20:00 +8°C° 0.1 mm 7 m/s 737 mmHg 85%
    21:00 +8°C° 0.1 mm 7 m/s 738 mmHg 85%
    22:00 +8°C° 0.1 mm 7 m/s 738 mmHg 85%
    23:00 +8°C° 0.1 mm 6 m/s 738 mmHg 86%

    26 Octombrie, Vineri

    Timp Temperatura Precipitaţii Vânt Presiune Umiditate
    00:00 +8°C° 0.1 mm 6 m/s 738 mmHg 87%
    01:00 +8°C° 0.1 mm 6 m/s 738 mmHg 87%
    02:00 +8°C° 0.1 mm 6 m/s 738 mmHg 87%
    03:00 +8°C° 0.1 mm 5 m/s 738 mmHg 87%
    04:00 +8°C° 0.1 mm 5 m/s 738 mmHg 87%
    05:00 +8°C° 0 mm 5 m/s 738 mmHg 87%
    06:00 +8°C° 0 mm 5 m/s 738 mmHg 86%
    07:00 +8°C° 0 mm 4 m/s 738 mmHg 86%
    08:00 +8°C° 0 mm 5 m/s 738 mmHg 82%
    09:00 +9°C° 0 mm 5 m/s 738 mmHg 77%
    10:00 +10°C° 0 mm 5 m/s 738 mmHg 72%
    11:00 +12°C° 0 mm 5 m/s 738 mmHg 69%
    12:00 +12°C° 0 mm 5 m/s 737 mmHg 65%
    13:00 +13°C° 0 mm 5 m/s 737 mmHg 62%
    14:00 +12°C° 0 mm 5 m/s 736 mmHg 65%
    15:00 +12°C° 0 mm 4 m/s 736 mmHg 68%
    16:00 +11°C° 0 mm 3 m/s 736 mmHg 71%
    17:00 +10°C° 0 mm 3 m/s 735 mmHg 75%
    18:00 +10°C° 0 mm 3 m/s 735 mmHg 78%
    19:00 +9°C° 0 mm 2 m/s 735 mmHg 82%
    20:00 +9°C° 0 mm 2 m/s 735 mmHg 83%
    21:00 +8°C° 0 mm 2 m/s 734 mmHg 84%
    22:00 +8°C° 0 mm 2 m/s 734 mmHg 85%
    23:00 +8°C° 0 mm 2 m/s 734 mmHg 86%
    Arată mai mult